Location: ??????
(30.0081°N, 31.2109°E)
Time: 09:13:09
(UTC+00:00)

Okean 1 - Pass Details

Date: 03 March 2021
Orbit: 538 x 554 km, 82.5° (Epoch: 15 April)

Event Time Altitude Azimuth Distance (km) Brightness Sun altitude
Rises 16:22:42 0° 6° (N) 2,725 6.8 -6.7°
Reaches altitude 10° 16:25:03 10° 16° (NNE) 1,830 5.8 -7.2°
Maximum altitude 16:28:40 32° 80° (E) 964 4.0 -7.9°
Drops below altitude 10° 16:32:17 10° 145° (SE) 1,826 5.7 -8.7°
Sets 16:34:37 0° 155° (SSE) 2,717 6.6 -9.2°
